Souda, Greece

7:28 PM EEST on June 21, 2018 (GMT +0300)
Souda Air Base

Weather History for LGSA - August, 2017

Change the Weather History Date:

Sunday, August 13, 2017

  Actual Average Record
Temperature  
Mean Temperature 80 °F -  
Max Temperature 86 °F 84 °F 102 °F (1999)
Min Temperature 75 °F 67 °F 66 °F (1996)
Cooling Degree Days 16    
Growing Degree Days 30 (Base 50)    
Moisture  
Dew Point 69 °F    
Average Humidity 66    
Maximum Humidity 79    
Minimum Humidity 46    
Precipitation  
Precipitation 0.00 in 0.01 in - ()
Sea Level Pressure  
Sea Level Pressure 29.74 in    
Wind  
Wind Speed 25 mph ()    
Max Wind Speed 36 mph    
Max Gust Speed 46 mph    
Visibility 6.0 miles    
Events      
Averages and records for this station are not official NWS values.
T = Trace of Precipitation, MM = Missing Value Source: Averaged Metar Reports

Daily Weather History Graph

Daily Weather History Graph

Search for Another Location

Airport or City:

Astronomy

Aug. 13, 2017 Rise Set
Actual Time 6:41 AM EEST 8:14 PM EEST
Civil Twilight 6:14 AM EEST 8:42 PM EEST
Nautical Twilight 5:41 AM EEST 9:14 PM EEST
Astronomical Twilight 5:07 AM EEST 9:48 PM EEST
Moon 11:49 PM EEST (8/13) 12:08 PM EEST (8/13)
Length of Visible Light 14h 27m
Length of Day
13h 33m
Waning Gibbous, 68% of the Moon is Illuminated
Aug 13
Waning Gibbous
Aug 15
Last Quarter
Aug 21
New
Aug 29
First Quarter
Sep 6
Full

Hourly Weather History & Observations

Time (EEST) Temp. Heat Index Dew Point Humidity Pressure Visibility Wind Dir Wind Speed Gust Speed Precip Events Conditions
12:00 AM 83 °F - 70 °F 57% 29.77 in 6 mi West 23.0 mph - -  
12:20 AM 82.4 °F 87.2 °F 71.6 °F 70% 29.77 in - West 20.7 mph - N/A   Clear
12:50 AM 82.4 °F 86.3 °F 69.8 °F 66% 29.77 in - West 25.3 mph - N/A   Clear
1:20 AM 82.4 °F 87.2 °F 71.6 °F 70% 29.74 in - WNW 25.3 mph - N/A   Clear
1:50 AM 82.4 °F 88.2 °F 73.4 °F 74% 29.77 in - West 26.5 mph - N/A   Clear
2:20 AM 80.6 °F 85.4 °F 73.4 °F 79% 29.77 in - West 32.2 mph - N/A   Clear
2:50 AM 80.6 °F 84.6 °F 71.6 °F 74% 29.77 in - West 33.4 mph - N/A   Clear
3:00 AM 81 °F - 72 °F 68% 29.76 in 6 mi West 33.4 mph - -  
3:20 AM 80.6 °F 84.6 °F 71.6 °F 74% 29.71 in - West 32.2 mph - N/A   Clear
3:50 AM 80.6 °F 83.9 °F 69.8 °F 70% 29.71 in - West 34.5 mph - N/A   Clear
4:20 AM 80.6 °F 83.9 °F 69.8 °F 70% 29.71 in - West 34.5 mph - N/A   Clear
4:50 AM 78.8 °F - 69.8 °F 74% 29.71 in - West 35.7 mph - N/A   Clear
5:20 AM 78.8 °F - 69.8 °F 74% 29.71 in - West 31.1 mph 43.7 mph N/A   Clear
5:50 AM 77.0 °F - 69.8 °F 78% 29.68 in - West 33.4 mph 44.9 mph N/A   Clear
6:00 AM 78 °F - 70 °F 69% 29.69 in 6 mi West 33.4 mph - -  
6:20 AM 77.0 °F - 69.8 °F 78% 29.68 in - West 24.2 mph 35.7 mph N/A   Clear
6:50 AM 77.0 °F - 69.8 °F 78% 29.71 in - West 15.0 mph - N/A   Clear
7:20 AM 77.0 °F - 68.0 °F 74% 29.71 in - West 24.2 mph - N/A   Clear
7:50 AM 77.0 °F - 68.0 °F 74% 29.71 in - West 28.8 mph - N/A   Clear
8:20 AM 78.8 °F - 68.0 °F 69% 29.71 in - West 20.7 mph 32.2 mph N/A   Clear
8:50 AM 80.6 °F 83.2 °F 68.0 °F 65% 29.71 in - West 25.3 mph 36.8 mph N/A   Clear
9:00 AM 81 °F - 68 °F 56% 29.71 in 6 mi West 25.3 mph - -  
9:20 AM 80.6 °F 83.2 °F 68.0 °F 65% 29.71 in - West 27.6 mph 39.1 mph N/A   Clear
9:50 AM 84.2 °F 87.3 °F 68.0 °F 58% 29.74 in - West 28.8 mph 42.6 mph N/A   Clear
10:20 AM 84.2 °F 87.3 °F 68.0 °F 58% 29.74 in - West 32.2 mph 46.0 mph N/A   Clear
10:50 AM 84.2 °F 88.4 °F 69.8 °F 62% 29.74 in - West 32.2 mph 43.7 mph N/A   Clear
11:20 AM 84.2 °F 88.4 °F 69.8 °F 62% 29.74 in - West 32.2 mph 43.7 mph N/A   Clear
11:50 AM 84.2 °F 87.3 °F 68.0 °F 58% 29.74 in - West 32.2 mph 46.0 mph N/A   Clear
12:00 PM 84 °F - 69 °F 51% 29.74 in 6 mi West 32.2 mph - -  
12:20 PM 84.2 °F 87.3 °F 68.0 °F 58% 29.74 in - West 32.2 mph 43.7 mph N/A   Clear
12:50 PM 86.0 °F 89.4 °F 68.0 °F 55% 29.74 in - West 29.9 mph 41.4 mph N/A   Clear
1:20 PM 86.0 °F 89.4 °F 68.0 °F 55% 29.74 in - West 32.2 mph 46.0 mph N/A   Clear
1:50 PM 86.0 °F 89.4 °F 68.0 °F 55% 29.74 in - West 32.2 mph 46.0 mph N/A   Clear
2:50 PM 86.0 °F 89.4 °F 68.0 °F 55% 29.77 in - WNW 32.2 mph 43.7 mph N/A   Clear
3:00 PM 86 °F - 68 °F 46% 29.74 in 6 mi WNW 32.2 mph - -  
3:20 PM 86.0 °F 89.4 °F 68.0 °F 55% 29.77 in - WNW 32.2 mph 43.7 mph N/A   Clear
3:50 PM 86.0 °F 89.4 °F 68.0 °F 55% 29.74 in - West 32.2 mph 43.7 mph N/A   Clear
4:20 PM 86.0 °F 89.4 °F 68.0 °F 55% 29.74 in - West 32.2 mph 46.0 mph N/A   Clear
4:50 PM 86.0 °F 89.4 °F 68.0 °F 55% 29.74 in - WNW 29.9 mph 41.4 mph N/A   Clear
5:20 PM 86.0 °F 89.4 °F 68.0 °F 55% 29.74 in - West 32.2 mph 43.7 mph N/A   Clear
5:50 PM 82.4 °F 85.4 °F 68.0 °F 62% 29.74 in - West 32.2 mph 43.7 mph N/A   Clear
6:00 PM 83 °F - 68 °F 52% 29.73 in 6 mi West 32.2 mph - -  
6:20 PM 82.4 °F 85.4 °F 68.0 °F 62% 29.74 in 6.2 mi West 32.2 mph 43.7 mph N/A   Partly Cloudy
7:50 PM 78.8 °F - 68.0 °F 69% 29.74 in - West 25.3 mph 36.8 mph N/A   Clear
8:20 PM 78.8 °F - 68.0 °F 69% 29.74 in - West 23.0 mph 34.5 mph N/A   Clear
8:50 PM 77.0 °F - 68.0 °F 74% 29.77 in - West 18.4 mph 29.9 mph N/A   Clear
9:00 PM 77 °F - 68 °F 67% 29.76 in 6 mi West 18.4 mph - -  
9:20 PM 77.0 °F - 68.0 °F 74% 29.77 in - West 16.1 mph 27.6 mph N/A   Clear
9:50 PM 77.0 °F - 68.0 °F 74% 29.77 in - West 16.1 mph 27.6 mph N/A   Clear
10:20 PM 77.0 °F - 68.0 °F 74% 29.77 in - West 16.1 mph 27.6 mph N/A   Clear
10:50 PM 75.2 °F - 68.0 °F 78% 29.80 in - West 16.1 mph 27.6 mph N/A   Clear
11:20 PM 75.2 °F - 68.0 °F 78% 29.80 in - West 17.3 mph - N/A   Clear
11:50 PM 75.2 °F - 68.0 °F 78% 29.80 in - West 17.3 mph - N/A   Clear